Weather History for Franklin, PA

Change the Weather History Date:

Saturday, January 19, 2013

  Actual Average Record
Temperature  
Mean Temperature 39 °F -  
Max Temperature 48 °F 31 °F 66 °F (1929)
Min Temperature 30 °F 15 °F -12 °F (1948)
Degree Days  
Heating Degree Days 26    
Moisture  
Dew Point 20 °F    
Average Humidity 45    
Maximum Humidity 55    
Minimum Humidity 34    
Precipitation  
Precipitation 0.00 in - - ()
Sea Level Pressure  
Sea Level Pressure 29.98 in    
Wind  
Wind Speed 15 mph (SSW)    
Max Wind Speed 24 mph    
Max Gust Speed 31 mph    
Visibility 10 miles    
Events      
Averages and records for this station are not official NWS values.
T = Trace of Precipitation, MM = Missing Value Source: NWS Daily Summary

Daily Weather History Graph

Daily Weather History Graph

Search for Another Location

Airport:

Trip Planner

Search our weather history database for the weather conditions in past years. The results will help you decide how hot, cold, wet, or windy it might be!

Date:

Astronomy

Jan. 19, 2013 Rise Set
Actual Time 7:41 AM EST 5:19 PM EST
Civil Twilight 7:10 AM EST 5:50 PM EST
Nautical Twilight 6:36 AM EST 6:23 PM EST
Astronomical Twilight 6:04 AM EST 6:56 PM EST
Moon 11:46 AM EST (1/19) 1:12 AM EST (1/19)
Length of Visible Light 10h 39m
Length of Day
9h 38m
First Quarter, 57% of the Moon is Illuminated
Jan 19
First Quarter
Jan 26
Full
Feb 3
Last Quarter
Feb 10
New
Feb 17
First Quarter

Hourly Weather History & Observations

Time (EST) Temp. Windchill Dew Point Humidity Pressure Visibility Wind Dir Wind Speed Gust Speed Precip Events Conditions
12:15 AM 30.2 °F 18.5 °F 14.0 °F 51% 30.13 in 10.0 mi SSW 17.3 mph 24.2 mph N/A   Overcast
12:35 AM 30.2 °F 18.5 °F 15.8 °F 55% 30.13 in 10.0 mi SSW 17.3 mph 24.2 mph N/A   Overcast
12:55 AM 30.2 °F 18.5 °F 15.8 °F 55% 30.13 in 10.0 mi SSW 17.3 mph 24.2 mph N/A   Overcast
1:15 AM 30.2 °F 19.3 °F 15.8 °F 55% 30.12 in 10.0 mi South 15.0 mph 18.4 mph N/A   Overcast
1:35 AM 32.0 °F 23.0 °F 15.8 °F 51% 30.12 in 10.0 mi SSW 11.5 mph 26.5 mph N/A   Overcast
1:55 AM 33.8 °F 24.3 °F 15.8 °F 48% 30.12 in 10.0 mi SSW 13.8 mph 21.9 mph N/A   Overcast
2:15 AM 33.8 °F 24.3 °F 17.6 °F 52% 30.12 in 10.0 mi SSW 13.8 mph - N/A   Overcast
2:35 AM 33.8 °F 26.4 °F 15.8 °F 48% 30.13 in 10.0 mi SSW 9.2 mph 18.4 mph N/A   Overcast
2:55 AM 33.8 °F 23.9 °F 15.8 °F 48% 30.12 in 10.0 mi SW 15.0 mph 21.9 mph N/A   Scattered Clouds
3:15 AM 35.6 °F 27.1 °F 15.8 °F 44% 30.12 in 10.0 mi SSW 12.7 mph 20.7 mph N/A   Clear
3:35 AM 33.8 °F 23.9 °F 15.8 °F 48% 30.11 in 10.0 mi SW 15.0 mph 21.9 mph N/A   Clear
3:55 AM 33.8 °F 24.3 °F 15.8 °F 48% 30.11 in 10.0 mi SSW 13.8 mph 23.0 mph N/A   Clear
4:15 AM 33.8 °F 23.9 °F 15.8 °F 48% 30.10 in 10.0 mi SSW 15.0 mph 25.3 mph N/A   Clear
4:35 AM 33.8 °F 23.9 °F 15.8 °F 48% 30.09 in 10.0 mi SSW 15.0 mph 20.7 mph N/A   Clear
4:55 AM 33.8 °F 25.3 °F 17.6 °F 52% 30.09 in 10.0 mi SSW 11.5 mph 18.4 mph N/A   Clear
5:15 AM 33.8 °F 24.3 °F 17.6 °F 52% 30.08 in 10.0 mi SSW 13.8 mph 19.6 mph N/A   Clear
5:35 AM 33.8 °F 24.3 °F 17.6 °F 52% 30.08 in 10.0 mi SSW 13.8 mph 20.7 mph N/A   Clear
5:55 AM 33.8 °F 24.8 °F 17.6 °F 52% 30.08 in 10.0 mi SSW 12.7 mph 19.6 mph N/A   Clear
6:15 AM 33.8 °F 24.8 °F 17.6 °F 52% 30.08 in 10.0 mi SSW 12.7 mph 20.7 mph N/A   Clear
6:35 AM 33.8 °F 24.8 °F 17.6 °F 52% 30.08 in 10.0 mi SSW 12.7 mph 18.4 mph N/A   Clear
6:55 AM 33.8 °F 24.3 °F 17.6 °F 52% 30.07 in 10.0 mi SSW 13.8 mph 23.0 mph N/A   Clear
7:15 AM 33.8 °F 23.9 °F 17.6 °F 52% 30.07 in 10.0 mi SSW 15.0 mph 23.0 mph N/A   Clear
7:35 AM 33.8 °F 24.8 °F 17.6 °F 52% 30.07 in 10.0 mi SSW 12.7 mph 21.9 mph N/A   Clear
7:55 AM 33.8 °F 24.3 °F 17.6 °F 52% 30.07 in 10.0 mi SSW 13.8 mph 20.7 mph N/A   Clear
8:15 AM 33.8 °F 25.3 °F 17.6 °F 52% 30.07 in 10.0 mi SW 11.5 mph 19.6 mph N/A   Clear
8:35 AM 33.8 °F 23.9 °F 17.6 °F 52% 30.07 in 10.0 mi SW 15.0 mph 21.9 mph N/A   Clear
8:55 AM 35.6 °F 26.6 °F 17.6 °F 48% 30.08 in 10.0 mi SSW 13.8 mph 20.7 mph N/A   Clear
9:15 AM 35.6 °F 25.9 °F 19.4 °F 52% 30.08 in 10.0 mi SSW 16.1 mph 25.3 mph N/A   Clear
9:35 AM 37.4 °F 29.3 °F 19.4 °F 48% 30.08 in 10.0 mi SSW 12.7 mph 21.9 mph N/A   Clear
9:55 AM 37.4 °F 28.5 °F 19.4 °F 48% 30.07 in 10.0 mi SSW 15.0 mph 24.2 mph N/A   Clear
10:15 AM 39.2 °F 30.5 °F 19.4 °F 45% 30.08 in 10.0 mi SSW 16.1 mph 25.3 mph N/A   Clear
10:35 AM 39.2 °F 30.2 °F 19.4 °F 45% 30.08 in 10.0 mi SW 17.3 mph 23.0 mph N/A   Clear
10:55 AM 41.0 °F 32.8 °F 21.2 °F 45% 30.07 in 10.0 mi SSW 16.1 mph 25.3 mph N/A   Clear
11:15 AM 42.8 °F 35.8 °F 21.2 °F 42% 30.06 in 10.0 mi SW 13.8 mph 24.2 mph N/A   Clear
11:35 AM 42.8 °F 35.8 °F 21.2 °F 42% 30.05 in 10.0 mi SW 13.8 mph 29.9 mph N/A   Clear
11:55 AM 44.6 °F 38.1 °F 23.0 °F 43% 30.03 in 10.0 mi SW 13.8 mph 26.5 mph N/A   Clear
12:15 PM 44.6 °F 36.9 °F 23.0 °F 43% 30.02 in 10.0 mi SSW 18.4 mph 28.8 mph N/A   Clear
12:35 PM 44.6 °F 37.8 °F 24.8 °F 46% 30.01 in 10.0 mi SW 15.0 mph 23.0 mph N/A   Clear
12:55 PM 44.6 °F 37.4 °F 24.8 °F 46% 29.99 in 10.0 mi SSW 16.1 mph 24.2 mph N/A   Clear
1:15 PM 46.4 °F 39.5 °F 24.8 °F 43% 29.98 in 10.0 mi SSW 17.3 mph 28.8 mph N/A   Clear
1:35 PM 46.4 °F 40.4 °F 24.8 °F 43% 29.97 in 10.0 mi SSW 13.8 mph 25.3 mph N/A   Clear
1:55 PM 48.2 °F - 24.8 °F 40% 29.96 in 10.0 mi SW 18.4 mph 25.3 mph N/A   Clear
2:15 PM 46.4 °F 39.8 °F 24.8 °F 43% 29.95 in 10.0 mi South 16.1 mph 29.9 mph N/A   Clear
2:35 PM 48.2 °F - 24.8 °F 40% 29.94 in 10.0 mi SW 11.5 mph 21.9 mph N/A   Clear
2:55 PM 48.2 °F - 24.8 °F 40% 29.93 in 10.0 mi SSW 18.4 mph 24.2 mph N/A   Clear
3:15 PM 48.2 °F - 24.8 °F 40% 29.92 in 10.0 mi SSW 16.1 mph 27.6 mph N/A   Clear
3:35 PM 48.2 °F - 23.0 °F 37% 29.91 in 10.0 mi SSW 15.0 mph 25.3 mph N/A   Clear
3:55 PM 48.2 °F - 23.0 °F 37% 29.90 in 10.0 mi SSW 17.3 mph 23.0 mph N/A   Clear
4:15 PM 48.2 °F - 21.2 °F 34% 29.90 in 10.0 mi South 19.6 mph 27.6 mph N/A   Clear
4:35 PM 46.4 °F 39.8 °F 19.4 °F 34% 29.89 in 10.0 mi South 16.1 mph 24.2 mph N/A   Clear
4:55 PM 46.4 °F 40.4 °F 19.4 °F 34% 29.88 in 10.0 mi SSW 13.8 mph 25.3 mph N/A   Clear
5:15 PM 44.6 °F 37.2 °F 19.4 °F 37% 29.88 in 10.0 mi SSW 17.3 mph 24.2 mph N/A   Clear
5:35 PM 44.6 °F 37.8 °F 19.4 °F 37% 29.87 in 10.0 mi SSW 15.0 mph 24.2 mph N/A   Clear
5:55 PM 42.8 °F 35.4 °F 19.4 °F 39% 29.85 in 10.0 mi South 15.0 mph - N/A   Clear
6:15 PM 42.8 °F 34.3 °F 19.4 °F 39% 29.84 in 10.0 mi South 19.6 mph - N/A   Clear
6:35 PM 44.6 °F 36.6 °F 21.2 °F 39% 29.83 in 10.0 mi South 19.6 mph 31.1 mph N/A   Clear
6:55 PM 44.6 °F 35.7 °F 21.2 °F 39% 29.82 in 10.0 mi South 24.2 mph 31.1 mph N/A   Clear
7:15 PM 44.6 °F 36.1 °F 21.2 °F 39% 29.81 in 10.0 mi South 21.9 mph 29.9 mph N/A   Clear
7:35 PM 44.6 °F 36.6 °F 21.2 °F 39% 29.81 in 10.0 mi SSW 19.6 mph 29.9 mph N/A   Clear
7:55 PM 44.6 °F 36.9 °F 21.2 °F 39% 29.82 in 10.0 mi SSW 18.4 mph 25.3 mph N/A   Clear
8:15 PM 44.6 °F 37.8 °F 21.2 °F 39% 29.82 in 10.0 mi SSW 15.0 mph 24.2 mph N/A   Clear
8:35 PM 44.6 °F 37.8 °F 21.2 °F 39% 29.82 in 10.0 mi SSW 15.0 mph 21.9 mph N/A   Clear
8:55 PM 44.6 °F 36.6 °F 21.2 °F 39% 29.81 in 10.0 mi SSW 19.6 mph 25.3 mph N/A   Clear
9:15 PM 44.6 °F 37.8 °F 21.2 °F 39% 29.80 in 10.0 mi SSW 15.0 mph 27.6 mph N/A   Mostly Cloudy
9:35 PM 44.6 °F 37.2 °F 21.2 °F 39% 29.79 in 10.0 mi SSW 17.3 mph 26.5 mph N/A   Mostly Cloudy
9:55 PM 44.6 °F 37.4 °F 21.2 °F 39% 29.79 in 10.0 mi SSW 16.1 mph 28.8 mph N/A   Partly Cloudy
10:15 PM 44.6 °F 37.4 °F 21.2 °F 39% 29.78 in 10.0 mi SSW 16.1 mph 28.8 mph N/A   Clear
10:35 PM 44.6 °F 37.8 °F 21.2 °F 39% 29.77 in 10.0 mi SSW 15.0 mph 25.3 mph N/A   Clear
10:55 PM 42.8 °F 34.8 °F 21.2 °F 42% 29.77 in 10.0 mi SSW 17.3 mph 24.2 mph N/A   Clear
11:15 PM 42.8 °F 36.2 °F 21.2 °F 42% 29.76 in 10.0 mi SW 12.7 mph 21.9 mph N/A   Scattered Clouds
11:35 PM 42.8 °F 34.5 °F 21.2 °F 42% 29.75 in 10.0 mi SW 18.4 mph 29.9 mph N/A   Overcast
11:55 PM 44.6 °F 38.1 °F 23.0 °F 43% 29.74 in 10.0 mi SW 13.8 mph 25.3 mph N/A   Overcast